[[{"header":{"parameterUnit":"m.s-1","parameterCategory":1,"la1":30.2991,"la2":30.254,"lo1":-89.0895,"lo2":-89.0444,"dy":0.0017,"dx":0.0017,"nx":28,"ny":28,"refTime":"2023-10-18T09:00:00:Z","depth":0,"parameterNumber":2,"parameterNumberName":"U-component_of_WINDS"},"data":[0,0,0,0,0,0,0,0,0,0,0,0,0,0,0,0,0,0,0,0,0,0,0,0,0,0,0,0,0,0,0,0,0,0,0,0,0,0,0,0,0,0,0,0,0,0,0,0,0,0,0,0,0,0,0,0,0,0,3.4922,3.4924,0,3.5087,3.5089,3.5091,3.5054,3.5051,3.5048,3.5045,3.5217,3.5225,3.5232,0,0,0,0,0,0,0,0,0,0,0,0,0,3.4576,3.4582,3.4922,3.4924,3.4926,3.5087,3.5089,3.5092,3.5054,3.5051,3.5047,3.5043,3.5215,3.5224,3.5233,0,0,0,0,0,0,0,0,0,0,0,0,0,3.4732,3.4585,3.4921,3.4926,3.4929,3.5087,3.5089,3.5092,3.5055,3.505,3.5046,3.5041,3.5212,3.5223,3.5234,3.5398,0,0,3.5269,3.5274,0,0,0,0,0,0,0,0,3.4724,3.4745,3.4924,3.4926,3.4929,3.5045,3.5031,3.5195,3.5056,3.5007,3.5044,3.5039,3.5164,3.5179,3.5221,3.5406,3.5414,3.527,3.5276,3.5281,3.5285,0,0,0,0,0,0,0,3.4713,3.4738,3.4987,3.4926,3.493,3.4922,3.4939,3.5062,3.511,3.5011,3.5009,3.5029,3.5165,3.521,3.5224,3.5416,3.5269,3.5279,3.5286,3.5291,3.5745,3.575,0,0,0,0,0,0,3.4699,3.4729,3.4982,3.4992,3.4812,3.4932,3.4951,3.5013,3.5109,3.5119,3.5033,3.5026,3.5193,3.5211,3.523,3.5428,3.5281,3.5292,3.5298,3.5739,3.5746,3.5751,0,0,0,0,0,0,3.4692,3.4722,3.4975,3.486,3.4892,3.4943,3.5013,3.5018,3.5063,3.5125,3.5134,3.507,3.519,3.5214,3.5356,3.5433,3.5297,3.5307,3.5733,3.5741,3.5749,3.5825,0,0,0,0,0,0,3.4682,3.472,3.4782,3.4862,3.4898,3.5098,3.5017,3.5025,3.5082,3.5076,3.5162,3.5172,3.5188,3.534,3.5368,3.5447,3.5316,3.5726,3.5737,3.5746,3.5816,3.5835,3.5851,0,0,0,0,0,3.467,3.4797,3.4785,3.4816,3.4976,3.5102,3.5123,3.5138,3.5089,3.5152,3.5192,3.5169,3.5421,3.5355,3.5386,3.5469,3.5722,3.5734,3.5745,3.5808,3.5831,3.585,0,0,0,0,0,0,3.4726,3.4808,3.4795,3.4952,3.5021,3.5096,3.5176,3.5162,3.5247,3.5237,3.5254,3.5274,3.5418,3.5458,3.5383,3.5633,3.5564,3.5583,3.5601,3.5624,3.5641,3.5628,3.5325,0,0,0,0,0,3.4757,3.4851,3.4918,3.505,3.5085,3.5125,3.518,3.5186,3.5258,3.5287,3.5337,3.5408,3.5504,3.5566,3.5657,3.5822,3.584,3.5895,3.5912,3.5926,3.5942,3.6032,3.6057,3.5791,3.579,3.579,0,0,3.4821,3.4878,3.4936,3.5063,3.5116,3.5215,3.5149,3.5256,3.5329,3.5304,3.544,3.548,3.556,3.5714,3.5785,3.5752,3.602,3.5941,3.5952,3.596,3.6046,3.6072,3.6094,3.5799,3.5797,3.5796,0,0,3.4988,3.5041,3.5156,3.5211,3.5292,3.5318,3.5346,3.5424,3.5448,3.5586,3.5568,3.5656,3.582,3.5878,3.5929,3.6119,3.6101,3.6148,3.6239,3.6326,3.6347,3.6366,3.6433,3.6457,3.6164,3.6164,3.6164,0,3.5058,3.5204,3.5217,3.5326,3.5382,3.5362,3.548,3.5533,3.5641,3.568,3.5642,3.5847,3.59,3.6067,3.6113,3.6156,3.6188,3.6138,3.6343,3.6362,3.6379,3.6444,3.6469,3.6169,3.6169,3.6168,3.6168,0,3.5286,3.5388,3.5471,3.5574,3.564,3.5753,3.5784,3.5849,3.585,3.588,3.602,3.6083,3.6186,3.6227,3.6229,3.6395,3.6372,3.6339,3.6269,3.641,3.647,3.6495,3.6177,3.6175,3.6173,3.6172,0,0,3.5492,3.5601,3.5631,3.5678,3.5767,3.5846,3.5958,3.6058,3.6114,3.6189,3.6283,3.6423,3.6392,3.645,3.6459,3.6536,3.6681,3.6493,3.6495,3.6525,3.6867,3.6891,3.6919,3.667,3.6675,3.6679,3.686,0,3.5666,3.5862,3.5877,3.6054,3.6148,3.6131,3.6229,3.6295,3.6326,3.6411,3.6446,3.6544,3.6497,3.6532,3.6607,3.6647,3.675,3.6635,3.6758,3.6763,3.6737,3.6951,3.6976,3.7144,3.6884,3.6888,3.6891,0,3.5896,3.5976,3.6162,3.6237,3.6277,3.6365,3.6457,3.6539,3.6614,3.6631,3.6696,3.6694,3.681,3.6738,3.6898,3.6819,3.6871,3.6899,3.6905,3.6917,3.6834,3.6967,3.7198,3.7223,3.6928,3.6925,3.6923,0,3.6026,3.6182,3.6313,3.6353,3.6445,3.6506,3.6547,3.6617,3.6676,3.6758,3.6796,3.6891,3.6943,3.7017,3.7041,3.6986,3.72,3.713,3.7218,3.7218,3.7263,3.726,3.7505,3.7298,3.7298,3.7298,3.7297,0,3.6219,3.6333,3.6372,3.6453,3.6581,3.6598,3.6724,3.6762,3.6824,3.6912,3.6905,3.6988,3.7015,3.7103,3.7123,3.7253,3.7277,3.7294,3.7298,3.7294,3.7292,3.7327,3.7316,3.7304,3.7303,3.7302,3.73,0,3.6386,3.6417,3.6558,3.6633,3.6655,3.6745,3.681,3.6888,3.6918,3.7029,3.7057,3.7104,3.7208,3.7239,3.7365,3.7378,3.7529,3.7523,3.7503,3.7503,3.7589,3.758,3.7865,3.7903,3.7673,3.7675,3.7677,0,3.6506,3.6593,3.6677,3.6734,3.6778,3.6871,3.6931,3.6952,3.7015,3.7106,3.7174,3.7276,3.7358,3.7525,3.7571,3.7667,3.7662,3.7755,3.7676,3.767,3.7662,3.7656,3.7665,3.777,3.7772,3.7774,3.7776,0,3.6715,3.6726,3.6812,3.6904,3.6975,3.7049,3.712,3.7168,3.72,3.7271,3.7376,3.744,3.7567,3.7669,3.7766,3.7809,3.7798,3.78,3.7826,3.7822,3.7807,3.7815,3.7543,3.7793,3.7792,3.779,3.7789,3.7789,3.6862,3.6938,3.7009,3.7105,3.716,3.7227,3.7303,3.7343,3.743,3.7534,3.7542,3.7655,3.7728,3.7857,3.7906,3.7996,3.7969,3.8006,3.8015,3.8023,3.803,3.7793,3.8014,3.8013,3.8013,3.8013,3.8012,0,3.707,3.7114,3.7203,3.7301,3.7377,3.7359,3.7437,3.7502,3.7601,3.767,3.7751,3.7872,3.797,3.8024,3.8123,3.8184,3.8182,3.8209,3.8204,3.8214,3.8049,3.8016,3.821,3.821,3.8209,3.8209,3.8209,3.8209,3.7187,3.7315,3.7334,3.749,3.7534,3.7644,3.769,3.7752,3.7806,3.7941,3.8022,3.8056,3.8119,3.8222,3.8312,3.8325,3.8362,3.8392,3.8403,3.8246,3.8226,3.8207,3.8176,3.84,3.84,3.8561,3.8562,3.8563]},{"header":{"parameterUnit":"m.s-1","parameterCategory":1,"la1":30.2991,"la2":30.254,"lo1":-89.0895,"lo2":-89.0444,"dy":0.0017,"dx":0.0017,"nx":28,"ny":28,"refTime":"2023-10-18T09:00:00:Z","depth":0,"parameterNumber":3,"parameterNumberName":"V-component_of_WINDS"},"data":[0,0,0,0,0,0,0,0,0,0,0,0,0,0,0,0,0,0,0,0,0,0,0,0,0,0,0,0,0,0,0,0,0,0,0,0,0,0,0,0,0,0,0,0,0,0,0,0,0,0,0,0,0,0,0,0,0,0,1.12,1.1201,0,1.126,1.126,1.1261,1.1251,1.125,1.1249,1.1248,1.1311,1.1314,1.1316,0,0,0,0,0,0,0,0,0,0,0,0,0,1.1078,1.108,1.12,1.1201,1.1201,1.126,1.1261,1.1261,1.1251,1.125,1.1249,1.1248,1.131,1.1313,1.1316,0,0,0,0,0,0,0,0,0,0,0,0,0,1.1134,1.1081,1.12,1.1203,1.1204,1.126,1.1261,1.1262,1.1252,1.125,1.1248,1.1247,1.1309,1.1313,1.1317,1.1373,0,0,1.1329,1.1331,0,0,0,0,0,0,0,0,1.1131,1.1138,1.1202,1.1203,1.1204,1.1246,1.1241,1.1299,1.1252,1.1234,1.1248,1.1246,1.1291,1.1296,1.1311,1.1376,1.1378,1.1329,1.1332,1.1333,1.1335,0,0,0,0,0,0,0,1.1127,1.1136,1.1224,1.1203,1.1204,1.1202,1.1209,1.1252,1.127,1.1235,1.1235,1.1242,1.1291,1.1307,1.1312,1.1379,1.1329,1.1333,1.1335,1.1337,1.1493,1.1494,0,0,0,0,0,0,1.1122,1.1132,1.1222,1.1225,1.1163,1.1206,1.1213,1.1234,1.127,1.1274,1.1243,1.1241,1.1301,1.1308,1.1315,1.1382,1.1333,1.1337,1.1339,1.1491,1.1493,1.1495,0,0,0,0,0,0,1.1119,1.113,1.1219,1.1179,1.119,1.121,1.1234,1.1237,1.1252,1.1276,1.1279,1.1256,1.13,1.1309,1.1358,1.1384,1.1339,1.1343,1.1489,1.1491,1.1494,1.1518,0,0,0,0,0,0,1.1115,1.1129,1.115,1.1179,1.1192,1.1262,1.1236,1.1239,1.1259,1.1257,1.1289,1.1292,1.13,1.1352,1.1362,1.1389,1.1346,1.1486,1.149,1.1493,1.1515,1.1521,1.1526,0,0,0,0,0,1.1111,1.1155,1.1151,1.1162,1.1219,1.1263,1.1271,1.1278,1.1261,1.1283,1.1298,1.1291,1.138,1.1357,1.1368,1.1397,1.1485,1.1489,1.1493,1.1512,1.152,1.1526,0,0,0,0,0,0,1.1129,1.1159,1.1155,1.1209,1.1234,1.1261,1.1289,1.1285,1.1315,1.1312,1.132,1.1327,1.1377,1.1392,1.1367,1.1452,1.143,1.1436,1.1441,1.1449,1.1454,1.145,1.1349,0,0,0,0,0,1.1139,1.1172,1.1196,1.1242,1.1254,1.127,1.1289,1.1292,1.1318,1.1328,1.1347,1.1373,1.1406,1.1428,1.146,1.1517,1.1524,1.1542,1.1547,1.1552,1.1557,1.1588,1.1597,1.1508,1.1508,1.1508,0,0,1.116,1.1181,1.1201,1.1246,1.1265,1.1299,1.1278,1.1316,1.1341,1.1334,1.1382,1.1396,1.1425,1.1478,1.1503,1.1492,1.1583,1.1557,1.156,1.1564,1.1593,1.1602,1.1609,1.151,1.151,1.151,0,0,1.1217,1.1235,1.1275,1.1295,1.1324,1.1334,1.1343,1.1372,1.1381,1.1428,1.1424,1.1454,1.1512,1.1533,1.1551,1.1615,1.161,1.1625,1.1655,1.1685,1.1692,1.1698,1.1721,1.1729,1.163,1.163,1.163,0,1.124,1.1291,1.1296,1.1334,1.1354,1.1348,1.1389,1.1408,1.1446,1.146,1.1448,1.1519,1.1539,1.1596,1.1612,1.1627,1.1638,1.1622,1.169,1.1697,1.1703,1.1724,1.1733,1.1632,1.1632,1.1631,1.1631,0,1.1318,1.1353,1.1382,1.1418,1.1442,1.1481,1.1492,1.1515,1.1516,1.1527,1.1575,1.1598,1.1635,1.1649,1.165,1.1707,1.1699,1.1688,1.1666,1.1713,1.1733,1.1742,1.1634,1.1634,1.1633,1.1633,0,0,1.1388,1.1426,1.1437,1.1453,1.1485,1.1512,1.1551,1.1586,1.1605,1.1632,1.1665,1.1713,1.1703,1.1724,1.1727,1.1754,1.1803,1.174,1.1741,1.1751,1.1866,1.1874,1.1884,1.1799,1.1801,1.1802,1.1864,0,1.1447,1.1515,1.1521,1.1582,1.1615,1.161,1.1643,1.1666,1.1678,1.1707,1.172,1.1754,1.1738,1.1751,1.1777,1.1791,1.1826,1.1787,1.183,1.1832,1.1823,1.1895,1.1903,1.196,1.1872,1.1873,1.1874,0,1.1526,1.1554,1.1618,1.1645,1.1659,1.1689,1.1721,1.1749,1.1776,1.1782,1.1805,1.1805,1.1845,1.182,1.1875,1.1849,1.1867,1.1876,1.1879,1.1883,1.1856,1.1901,1.1979,1.1987,1.1887,1.1886,1.1885,0,1.1571,1.1624,1.167,1.1684,1.1716,1.1737,1.1752,1.1776,1.1797,1.1825,1.1838,1.1871,1.1889,1.1915,1.1924,1.1905,1.1979,1.1955,1.1985,1.1985,1.2002,1.2,1.2083,1.2013,1.2013,1.2012,1.2012,0,1.1637,1.1676,1.169,1.1718,1.1762,1.1768,1.1812,1.1825,1.1847,1.1877,1.1875,1.1904,1.1914,1.1945,1.1952,1.1996,1.2005,1.2011,1.2013,1.2011,1.2011,1.2024,1.202,1.2015,1.2014,1.2014,1.2013,0,1.1694,1.1705,1.1754,1.178,1.1787,1.1819,1.1841,1.1868,1.1879,1.1917,1.1927,1.1944,1.1979,1.1991,1.2034,1.2039,1.2091,1.2089,1.2082,1.2082,1.2112,1.2109,1.2206,1.2219,1.214,1.2141,1.2141,0,1.1735,1.1766,1.1795,1.1815,1.183,1.1862,1.1883,1.189,1.1912,1.1944,1.1967,1.2002,1.2031,1.2088,1.2104,1.2137,1.2136,1.2168,1.2141,1.2139,1.2137,1.2135,1.2138,1.2173,1.2174,1.2175,1.2175,0,1.1808,1.1812,1.1841,1.1873,1.1898,1.1923,1.1948,1.1965,1.1976,1.2,1.2036,1.2059,1.2102,1.2137,1.2171,1.2186,1.2183,1.2183,1.2192,1.2191,1.2186,1.219,1.2096,1.2181,1.2181,1.218,1.218,1.218,1.1859,1.1885,1.191,1.1943,1.1962,1.1985,1.2011,1.2025,1.2055,1.2091,1.2094,1.2133,1.2158,1.2202,1.2219,1.225,1.2241,1.2254,1.2257,1.226,1.2262,1.2181,1.2256,1.2256,1.2256,1.2256,1.2256,0,1.1931,1.1946,1.1977,1.2011,1.2037,1.2031,1.2058,1.208,1.2114,1.2138,1.2166,1.2207,1.2241,1.226,1.2294,1.2315,1.2314,1.2323,1.2322,1.2326,1.2269,1.2258,1.2323,1.2323,1.2323,1.2323,1.2323,1.2323,1.1972,1.2016,1.2023,1.2076,1.2092,1.213,1.2145,1.2167,1.2185,1.2232,1.226,1.2271,1.2293,1.2328,1.2359,1.2364,1.2376,1.2387,1.239,1.2337,1.233,1.2323,1.2313,1.2389,1.2389,1.2445,1.2445,1.2446]}]]